Flag for Bahamas Weather past 2 weeks in Freeport, Bahamas

Now
76 °F

Passing clouds.


Feels Like: 76 °F
Forecast: 81 / 86 °F
Wind: 5 mph from Northwest

Location: Palm Beach International Airport

Current Time: Aug 27, 2014 at 6:59:06 AM

Latest Report: Aug 27, 2014 at 5:53 AM


Visibility: 10 mi

Pressure: 29.88 "Hg

Humidity: 88%

Dew point: 72 °F

Location of FreeportLocation

Historic Weather in Freeport — Graph

°F

Freeport temperature yesterday

Maximum temperature yesterday: 91 °F (at 1:53 PM)
Minimum temperature yesterday: 83 °F (at 5:53 AM)
Average temperature yesterday: 86 °F

Past Weeks' High & Low Weather Summary

 TemperatureHumidityPressure
High93 °F (Aug 20, 1:53 PM)97% (Aug 16, 5:00 PM)30.12 "Hg (Aug 16, 5:00 PM)
Low74 °F (Aug 15, 2:53 PM)42% (Aug 24, 12:53 PM)29.72 "Hg (Aug 25, 4:53 AM)
Average84 °F75%29.98 "Hg
* Reported Aug 12 4:53 AM — Aug 27 4:53 AM, Freeport, Weather by CustomWeather, © 2014

Note: Actual official high and low records may vary slightly from our data, if they occured in-between our weather recording intervals... More about our weather records

Advertising

Freeport weather history for previous 24 hours

 ConditionsComfort  
Time TempWeatherWind HumidityBarometerVisibility
4:53 AM
Aug 27
82 °FPassing clouds.5 mph65%29.88 "Hg10 mi
3:53 AM83 °FPassing clouds.7 mph63%29.87 "Hg10 mi
2:53 AM82 °FPassing clouds.6 mph63%29.88 "Hg10 mi
1:53 AM82 °FPassing clouds.6 mph60%29.88 "Hg10 mi
12:53 AM83 °FPassing clouds.7 mph59%29.89 "Hg10 mi
11:53 PM
Aug 26
83 °FPassing clouds.8 mph59%29.90 "Hg10 mi
10:53 PM84 °FPassing clouds.7 mph55%29.90 "Hg10 mi
9:53 PM84 °FPartly cloudy.12 mph59%29.90 "Hg10 mi
8:53 PM85 °FPartly cloudy.14 mph61%29.88 "Hg10 mi
7:53 PM85 °FBroken clouds.14 mph61%29.86 "Hg10 mi
6:53 PM87 °FBroken clouds.13 mph57%29.85 "Hg10 mi
5:53 PM88 °FBroken clouds.14 mph57%29.85 "Hg10 mi
4:53 PM88 °FBroken clouds.15 mph55%29.85 "Hg10 mi
3:53 PM90 °FBroken clouds.15 mph54%29.85 "Hg10 mi
2:53 PM89 °FScattered clouds.17 mph53%29.86 "Hg10 mi
1:53 PM91 °FScattered clouds.17 mph50%29.87 "Hg10 mi
12:53 PM90 °FScattered clouds.18 mph52%29.87 "Hg10 mi
11:53 AM89 °FScattered clouds.20 mph55%29.87 "Hg10 mi
10:53 AM89 °FPartly sunny.17 mph57%29.86 "Hg10 mi
9:53 AM87 °FScattered clouds.21 mph59%29.85 "Hg10 mi
8:53 AM85 °FBroken clouds.18 mph63%29.84 "Hg10 mi
7:53 AM84 °FPassing clouds.13 mph65%29.83 "Hg10 mi
6:53 AM83 °FPassing clouds.9 mph68%29.80 "Hg10 mi
Weather by CustomWeather, © 2014

See weather overviewHow to use our weather pages